Oberbuscherhof, Germany

7:26 AM CET on December 14, 2017 (GMT +0100)
Oberbuscherhof

Weather History for 10400 - June, 2013

Change the Weather History Date:

Tuesday, June 11, 2013

  Actual Average Record
Temperature  
Mean Temperature 60 °F -  
Max Temperature 72 °F 71 °F - ()
Min Temperature 48 °F 52 °F - ()
Degree Days  
Heating Degree Days 5    
Growing Degree Days 10 (Base 50)    
Moisture  
Dew Point 48 °F    
Average Humidity 61    
Maximum Humidity 94    
Minimum Humidity 30    
Precipitation  
Precipitation 0.00 in - - ()
Sea Level Pressure  
Sea Level Pressure 30.02 in    
Wind  
Wind Speed 4 mph ()    
Max Wind Speed 7 mph    
Max Gust Speed -    
Visibility 8.8 miles    
Events      
T = Trace of Precipitation, MM = Missing Value Source: Averaged Metar Reports

Daily Weather History Graph

Daily Weather History Graph

Search for Another Location

Airport or City:

Trip Planner

Search our weather history database for the weather conditions in past years. The results will help you decide how hot, cold, wet, or windy it might be!

Date:

Astronomy

Jun. 11, 2013 Rise Set
Actual Time 5:17 AM CEST 9:48 PM CEST
Civil Twilight 4:30 AM CEST 10:35 PM CEST
Nautical Twilight 3:19 AM CEST 11:46 PM CEST
Astronomical Twilight 2:04 AM CEST 1:00 AM CEST
Moon 7:59 AM CEST (6/11) 11:24 PM CEST (6/11)
Length of Visible Light 18h 04m
Length of Day
16h 31m
Waxing Crescent, 7% of the Moon is Illuminated
Jun 11
Waxing Crescent
Jun 16
First Quarter
Jun 23
Full
Jun 30
Last Quarter
Jul 8
New

Hourly Weather History & Observations

Time (CEST) Temp. Dew Point Humidity Pressure Visibility Wind Dir Wind Speed Gust Speed Precip Events Conditions
12:00 AM 58 °F 47 °F 58% 29.99 in 19 mi NNW 4.5 mph - -   Mostly Cloudy
12:20 AM 57.2 °F 48.2 °F 72% 29.98 in 6.2 mi NNW 5.8 mph - N/A   Mostly Cloudy
12:50 AM 57.2 °F 48.2 °F 72% 29.98 in 6.2 mi North 4.6 mph - N/A   Mostly Cloudy
1:00 AM 57 °F 48 °F 65% 30.00 in 19 mi North 4.5 mph - -   Mostly Cloudy
1:20 AM 57.2 °F 48.2 °F 72% 30.01 in 6.2 mi Variable 3.5 mph - N/A   Mostly Cloudy
1:50 AM 57.2 °F 48.2 °F 72% 30.01 in 6.2 mi Variable 3.5 mph - N/A   Mostly Cloudy
2:00 AM 56 °F 49 °F 69% 30.01 in 16 mi North 4.5 mph - -   Mostly Cloudy
2:20 AM 57.2 °F 48.2 °F 72% 30.01 in 6.2 mi NNE 5.8 mph - N/A   Mostly Cloudy
2:50 AM 55.4 °F 48.2 °F 77% 30.01 in 6.2 mi North 4.6 mph - N/A   Mostly Cloudy
3:00 AM 55 °F 48 °F 70% 30.01 in 14 mi North 4.5 mph - -   Mostly Cloudy
3:20 AM 53.6 °F 48.2 °F 82% 30.01 in 6.2 mi NNE 4.6 mph - N/A   Mostly Cloudy
3:50 AM 53.6 °F 46.4 °F 77% 30.01 in 6.2 mi North 5.8 mph - N/A   Partly Cloudy
4:00 AM 52 °F 47 °F 79% 30.01 in 12 mi North 6.7 mph - -   Scattered Clouds
4:20 AM 51.8 °F 46.4 °F 82% 30.01 in 6.2 mi North 4.6 mph - N/A   Partly Cloudy
4:50 AM 50.0 °F 44.6 °F 82% 30.01 in 6.2 mi ENE 2.3 mph - N/A   Scattered Clouds
5:20 AM 50.0 °F 46.4 °F 87% 30.01 in 6.2 mi NW 3.5 mph - N/A   Partly Cloudy
5:50 AM 48.2 °F 46.4 °F 93% 30.01 in 6.2 mi North 3.5 mph - N/A   Partly Cloudy
6:00 AM 48 °F 46 °F 91% 30.02 in 7 mi North 2.2 mph - -   Scattered Clouds
6:20 AM 50.0 °F 46.4 °F 87% 30.01 in 6.2 mi NNE 3.5 mph - N/A   Partly Cloudy
6:50 AM 50.0 °F 48.2 °F 94% 30.01 in 6.2 mi North 4.6 mph - N/A   Partly Cloudy
7:00 AM 50 °F 47 °F 88% 30.02 in 9 mi North 4.5 mph - -   Scattered Clouds
7:20 AM 51.8 °F 48.2 °F 88% 30.01 in 6.2 mi North 4.6 mph - N/A   Partly Cloudy
7:50 AM 53.6 °F 50.0 °F 88% 30.04 in 6.2 mi NE 4.6 mph - N/A   Scattered Clouds
8:00 AM 54 °F 50 °F 81% 30.03 in 9 mi NE 4.5 mph - -   Partly Cloudy
8:20 AM 55.4 °F 50.0 °F 82% 30.04 in 6.2 mi East 3.5 mph - N/A   Scattered Clouds
8:50 AM 57.2 °F 50.0 °F 77% 30.04 in 6.2 mi Variable 2.3 mph - N/A   Partly Cloudy
9:00 AM 58 °F 50 °F 67% 30.04 in 9 mi SE 2.2 mph - -   Scattered Clouds
9:20 AM 59.0 °F 50.0 °F 72% 30.04 in 6.2 mi Variable 3.5 mph - N/A   Partly Cloudy
9:50 AM 60.8 °F 50.0 °F 68% 30.04 in 6.2 mi Variable 2.3 mph - N/A   Partly Cloudy
10:00 AM 62 °F 49 °F 51% 30.04 in 9 mi WSW 2.2 mph - -   Scattered Clouds
10:20 AM 62.6 °F 48.2 °F 59% 30.04 in 6.2 mi Variable 2.3 mph - N/A   Partly Cloudy
10:50 AM 64.4 °F 50.0 °F 59% 30.04 in 6.2 mi West 5.8 mph - N/A   Partly Cloudy
11:20 AM 64.4 °F 46.4 °F 52% 30.04 in 6.2 mi West 5.8 mph - N/A   Partly Cloudy
11:50 AM 64.4 °F 48.2 °F 56% 30.04 in 6.2 mi WSW 5.8 mph - N/A   Partly Cloudy
12:00 PM 65 °F 47 °F 41% 30.05 in 9 mi WSW 6.7 mph - -   Scattered Clouds
12:20 PM 64.4 °F 46.4 °F 52% 30.04 in 6.2 mi West 4.6 mph - N/A   Scattered Clouds
12:50 PM 66.2 °F 46.4 °F 49% 30.04 in 6.2 mi Variable 4.6 mph - N/A   Partly Cloudy
1:00 PM 66 °F 46 °F 36% 30.05 in 19 mi SW 4.5 mph - -   Scattered Clouds
1:20 PM 68.0 °F 44.6 °F 43% 30.04 in 6.2 mi South 4.6 mph - N/A   Partly Cloudy
1:50 PM 66.2 °F 46.4 °F 49% 30.04 in 6.2 mi South 6.9 mph - N/A   Scattered Clouds
2:00 PM 66 °F 47 °F 39% 30.04 in 19 mi South 6.7 mph - -   Partly Cloudy
2:20 PM 69.8 °F 46.4 °F 43% 30.04 in 6.2 mi WNW 6.9 mph - N/A   Scattered Clouds
2:50 PM 68.0 °F 44.6 °F 43% 30.04 in 6.2 mi West 4.6 mph - N/A   Mostly Cloudy
3:00 PM 68 °F 46 °F 34% 30.04 in 19 mi West 4.5 mph - -   Mostly Cloudy
3:20 PM 69.8 °F 46.4 °F 43% 30.04 in - WNW 6.9 mph - N/A   Clear
3:50 PM 69.8 °F 44.6 °F 40% 30.04 in - West 6.9 mph - N/A   Clear
4:00 PM 70 °F 45 °F 30% 30.03 in 19 mi West 6.7 mph - -   Partly Cloudy
4:20 PM 69.8 °F 48.2 °F 46% 30.04 in - NW 5.8 mph - N/A   Clear
4:50 PM 71.6 °F 46.4 °F 41% 30.04 in - Variable 3.5 mph - N/A   Clear
5:20 PM 71.6 °F 48.2 °F 43% 30.01 in - Variable 3.5 mph - N/A   Clear
5:50 PM 71.6 °F 48.2 °F 43% 30.01 in - Variable 2.3 mph - N/A   Clear
6:00 PM 72 °F 47 °F 31% 30.02 in 22 mi West 4.5 mph - -   Partly Cloudy
6:20 PM 71.6 °F 48.2 °F 43% 30.01 in - West 5.8 mph - N/A   Clear
6:50 PM 69.8 °F 48.2 °F 46% 30.01 in 6.2 mi WSW 4.6 mph - N/A   Partly Cloudy
7:00 PM 70 °F 48 °F 34% 30.02 in 22 mi WSW 6.7 mph - -   Scattered Clouds
7:20 PM 71.6 °F 46.4 °F 41% 30.01 in 6.2 mi Variable 2.3 mph - N/A   Scattered Clouds
7:50 PM 69.8 °F 48.2 °F 46% 30.01 in 6.2 mi West 2.3 mph - N/A   Mostly Cloudy
8:00 PM 70 °F 47 °F 33% 30.02 in 22 mi West 2.2 mph - -   Scattered Clouds
8:20 PM 69.8 °F 48.2 °F 46% 30.01 in 6.2 mi WSW 3.5 mph - N/A   Mostly Cloudy
8:50 PM 68.0 °F 51.8 °F 56% 30.01 in 6.2 mi WNW 2.3 mph - N/A   Mostly Cloudy
9:00 PM 66 °F 51 °F 49% 30.02 in 19 mi WNW 2.2 mph - -   Partly Cloudy
9:20 PM 66.2 °F 53.6 °F 64% 30.04 in 6.2 mi WNW 1.2 mph - N/A   Mostly Cloudy
9:50 PM 66.2 °F 53.6 °F 64% 30.04 in 6.2 mi Variable 1.2 mph - N/A   Mostly Cloudy
10:00 PM 64 °F 53 °F 60% 30.04 in 19 mi West 2.2 mph - -   Mostly Cloudy
10:20 PM 66.2 °F 51.8 °F 60% 30.04 in 6.2 mi South 5.8 mph - N/A   Mostly Cloudy
10:50 PM 66.2 °F 51.8 °F 60% 30.04 in - South 6.9 mph - N/A   Clear
11:20 PM 66.2 °F 51.8 °F 60% 30.04 in - SSW 6.9 mph - N/A   Clear
11:50 PM 64.4 °F 53.6 °F 68% 30.04 in - SW 6.9 mph - N/A   Clear